Location: Alpha Ridge Park
(39.3209°N, 76.9128°W)
Time: 03:15:40
(UTC-05:00)

ISS - Visible Passes

Search period start: 29 January 2022 00:00
Search period end: 08 February 2022 00:00
Orbit: 413 x 422 km, 51.6° (Epoch: 29 January)

Date Brightness Start Highest point End Pass type
(mag) Time Alt. Az. Time Alt. Az. Time Alt. Az.
29 Jan -1.1 19:20:25 10° NNW 19:21:02 13° NNW 19:21:02 13° NNW visible
30 Jan -1.7 18:32:32 10° NNW 18:34:31 15° NNE 18:35:01 14° NNE visible
31 Jan -1.8 19:20:26 10° NW 19:21:58 22° NNW 19:21:58 22° NNW visible
01 Feb -2.5 18:32:24 10° NNW 18:35:13 25° NNE 18:36:03 22° NE visible
01 Feb -0.3 20:08:54 10° WNW 20:09:00 11° WNW 20:09:00 11° WNW visible
02 Feb -3.1 19:20:32 10° NW 19:23:12 54° WNW 19:23:12 54° WNW visible
03 Feb -3.7 18:32:15 10° NW 18:35:33 57° NE 18:37:33 21° ESE visible
03 Feb -0.3 20:10:04 10° W 20:10:31 12° WSW 20:10:31 12° WSW visible
04 Feb -1.7 19:20:58 10° WNW 19:23:46 25° SW 19:25:05 19° S visible
05 Feb -2.7 18:32:17 10° WNW 18:35:29 46° SW 18:38:40 10° SSE visible
07 Feb -0.7 18:32:59 10° W 18:35:02 15° SW 18:37:05 10° SSW visible
